Tracking 19638 objects as of 21-Apr-2019
HD Live streaming from Space Station
objects crossing your sky now

THORAD AGENA D DEB

Track THORAD AGENA D DEB now!
10-day predictions


NORAD ID: 4719
Int'l Code: 1970-025CD
Perigee: 833.0 km
Apogee: 1,014.7 km
Inclination: 100.0 °
Period: 103.3 minutes
Semi major axis: 7294 km
RCS: 0.6498 m2 (medium)
Launch date: April 8, 1970
Source: United States (US)
Launch site: AIR FORCE WESTERN TEST RANGE (AFWTR)

Note: This is SATELLITE DEBRIS
aabbcc
Your satellite tracking list
Your tracking list is empty




NASA's NSSDC Master Catalog

Two Line Element Set (TLE):
1  4719U 70025CD  19111.47769779  .00000204  00000-0  18373-3 0  9995
2  4719  99.9925 287.0131 0124546 305.1228  53.8307 13.93414846478739
Source of the keplerian elements: AFSPC